Location: Newark
(42.3578°N, 83.0683°W)
Time: 01:08:31
(UTC+00:00)

N. Korean satellite - Visible Passes

Search period start: 29 March 2020 00:00
Search period end: 08 April 2020 00:00
Orbit: 455 x 506 km, 97.2° (Epoch: 28 March)

Date Brightness Start Highest point End Pass type
(mag) Time Alt. Az. Time Alt. Az. Time Alt. Az.
31 Mar 9.7 10:24:20 10° NE 10:26:28 15° E 10:28:35 10° SE visible
03 Apr 9.2 10:40:14 10° NE 10:43:07 24° E 10:45:58 10° SSE visible
04 Apr 9.9 10:15:56 10° ENE 10:17:19 12° E 10:18:41 10° ESE visible
07 Apr 9.5 10:31:26 10° NE 10:33:58 19° E 10:36:29 10° SE visible
